Time,TemperatureF,DewpointF,PressureIn,WindDirection,WindDirectionDegrees,WindSpeedMPH,WindSpeedGustMPH,Humidity,HourlyPrecipIn,Conditions,Clouds,dailyrainin,SolarRadiationWatts/m^2,SoftwareType,DateUTC
2013-04-24 00:02:00,45.0,19.0,-100.00,ESE,109,1.0,7.0,35,0.00,,,0.00,0.000000,,2013-04-24 07:02:00,
2013-04-24 00:11:00,45.0,19.0,-100.00,ESE,109,1.0,7.0,35,0.00,,,0.00,0.000000,,2013-04-24 07:11:00,
2013-04-24 00:32:00,46.0,17.0,-100.00,East,94,4.0,5.0,31,0.00,,,0.00,0.000000,,2013-04-24 07:32:00,
2013-04-24 00:42:00,46.0,17.0,-100.00,East,94,4.0,5.0,31,0.00,,,0.00,0.000000,,2013-04-24 07:42:00,
2013-04-24 00:52:00,46.0,17.0,-100.00,East,94,4.0,5.0,31,0.00,,,0.00,0.000000,,2013-04-24 07:52:00,
2013-04-24 01:01:00,46.0,17.0,-100.00,East,94,4.0,5.0,31,0.00,,,0.00,0.000000,,2013-04-24 08:01:00,
2013-04-24 01:11:00,46.0,17.0,-100.00,East,94,4.0,5.0,31,0.00,,,0.00,0.000000,,2013-04-24 08:11:00,
2013-04-24 01:42:00,47.0,16.0,-100.00,East,82,5.0,7.0,28,0.00,,,0.00,0.000000,,2013-04-24 08:42:00,
2013-04-24 01:52:00,47.0,16.0,-100.00,East,82,5.0,7.0,28,0.00,,,0.00,0.000000,,2013-04-24 08:52:00,
2013-04-24 02:01:00,47.0,16.0,-100.00,East,82,5.0,7.0,28,0.00,,,0.00,0.000000,,2013-04-24 09:01:00,
2013-04-24 02:33:00,45.0,15.0,-100.00,ESE,114,2.0,6.0,30,0.00,,,0.00,0.000000,,2013-04-24 09:33:00,
2013-04-24 02:42:00,45.0,15.0,-100.00,ESE,114,2.0,6.0,30,0.00,,,0.00,0.000000,,2013-04-24 09:42:00,
2013-04-24 02:53:00,45.0,15.0,-100.00,ESE,114,2.0,6.0,30,0.00,,,0.00,0.000000,,2013-04-24 09:53:00,
2013-04-24 03:02:00,45.0,15.0,-100.00,ESE,114,2.0,6.0,30,0.00,,,0.00,0.000000,,2013-04-24 10:02:00,
2013-04-24 03:12:00,45.0,15.0,-100.00,ESE,114,2.0,6.0,30,0.00,,,0.00,0.000000,,2013-04-24 10:12:00,
2013-04-24 03:33:00,43.0,17.0,-100.00,SE,145,1.0,4.0,34,0.00,,,0.00,0.000000,,2013-04-24 10:33:00,
2013-04-24 03:42:00,43.0,17.0,-100.00,SE,145,1.0,4.0,34,0.00,,,0.00,0.000000,,2013-04-24 10:42:00,
2013-04-24 03:53:00,43.0,17.0,-100.00,SE,145,1.0,4.0,34,0.00,,,0.00,0.000000,,2013-04-24 10:53:00,
2013-04-24 04:02:00,43.0,17.0,-100.00,SE,145,1.0,4.0,34,0.00,,,0.00,0.000000,,2013-04-24 11:02:00,
2013-04-24 04:11:00,43.0,17.0,-100.00,SE,145,1.0,4.0,34,0.00,,,0.00,0.000000,,2013-04-24 11:11:00,
2013-04-24 04:32:00,43.0,17.0,-100.00,SE,132,1.0,4.0,34,0.00,,,0.00,0.000000,,2013-04-24 11:32:00,
2013-04-24 04:42:00,43.0,17.0,-100.00,SE,132,1.0,4.0,34,0.00,,,0.00,0.000000,,2013-04-24 11:42:00,
2013-04-24 04:52:00,43.0,17.0,-100.00,SE,132,1.0,4.0,34,0.00,,,0.00,0.000000,,2013-04-24 11:52:00,
2013-04-24 05:01:00,43.0,17.0,-100.00,SE,132,1.0,4.0,34,0.00,,,0.00,0.000000,,2013-04-24 12:01:00,
2013-04-24 05:11:00,43.0,17.0,-100.00,SE,132,1.0,4.0,34,0.00,,,0.00,0.000000,,2013-04-24 12:11:00,
2013-04-24 05:42:00,44.0,17.0,-100.00,East,99,1.0,4.0,33,0.00,,,-99.99,0.000000,,2013-04-24 12:42:00,
2013-04-24 05:52:00,44.0,17.0,-100.00,East,99,1.0,4.0,33,0.00,,,-99.99,0.000000,,2013-04-24 12:52:00,
2013-04-24 06:01:00,44.0,17.0,-100.00,East,99,1.0,4.0,33,0.00,,,-99.99,0.000000,,2013-04-24 13:01:00,
2013-04-24 06:12:00,44.0,17.0,-100.00,East,99,1.0,4.0,33,0.00,,,-99.99,0.000000,,2013-04-24 13:12:00,
2013-04-24 07:42:00,45.0,19.0,-100.00,SE,146,1.0,3.0,35,-99.99,,,0.00,59.000000,,2013-04-24 14:42:00,
2013-04-24 07:52:00,45.0,19.0,-100.00,SE,146,1.0,3.0,35,-99.99,,,0.00,59.000000,,2013-04-24 14:52:00,
2013-04-24 08:01:00,45.0,19.0,-100.00,SE,146,1.0,3.0,35,-99.99,,,0.00,59.000000,,2013-04-24 15:01:00,
2013-04-24 08:43:00,51.0,21.0,-100.00,SSE,153,3.0,4.0,31,-99.99,,,-99.99,198.000000,,2013-04-24 15:43:00,
2013-04-24 09:12:00,51.0,21.0,-100.00,SSE,153,3.0,4.0,31,-99.99,,,-99.99,198.000000,,2013-04-24 16:12:00,
2013-04-24 09:42:00,54.0,23.0,-100.00,SSE,151,3.0,6.0,30,0.00,,,0.00,336.000000,,2013-04-24 16:42:00,
2013-04-24 09:52:00,54.0,23.0,-100.00,SSE,151,3.0,6.0,30,0.00,,,0.00,336.000000,,2013-04-24 16:52:00,
2013-04-24 10:02:00,54.0,23.0,-100.00,SSE,151,3.0,6.0,30,0.00,,,0.00,336.000000,,2013-04-24 17:02:00,
2013-04-24 10:12:00,54.0,23.0,-100.00,SSE,151,3.0,6.0,30,0.00,,,0.00,336.000000,,2013-04-24 17:12:00,
2013-04-24 10:42:00,56.0,27.0,-100.00,ESE,111,3.0,7.0,33,0.00,,,0.00,607.000000,,2013-04-24 17:42:00,
2013-04-24 10:52:00,56.0,27.0,-100.00,ESE,111,3.0,7.0,33,0.00,,,0.00,607.000000,,2013-04-24 17:52:00,
2013-04-24 11:02:00,56.0,27.0,-100.00,ESE,111,3.0,7.0,33,0.00,,,0.00,607.000000,,2013-04-24 18:02:00,
2013-04-24 11:12:00,56.0,27.0,-100.00,ESE,111,3.0,7.0,33,0.00,,,0.00,607.000000,,2013-04-24 18:12:00,
2013-04-24 11:33:00,56.0,27.0,-100.00,ESE,102,5.0,9.0,33,0.00,,,0.00,701.000000,,2013-04-24 18:33:00,
2013-04-24 11:43:00,56.0,27.0,-100.00,ESE,102,5.0,9.0,33,0.00,,,0.00,701.000000,,2013-04-24 18:43:00,
2013-04-24 11:52:00,56.0,27.0,-100.00,ESE,102,5.0,9.0,33,0.00,,,0.00,701.000000,,2013-04-24 18:52:00,
2013-04-24 12:01:00,56.0,27.0,-100.00,ESE,102,5.0,9.0,33,0.00,,,0.00,701.000000,,2013-04-24 19:01:00,
2013-04-24 12:11:00,56.0,27.0,-100.00,ESE,102,5.0,9.0,33,0.00,,,0.00,701.000000,,2013-04-24 19:11:00,
2013-04-24 12:32:00,59.0,29.0,-100.00,ESE,105,5.0,10.0,32,0.00,,,0.00,834.000000,,2013-04-24 19:32:00,
2013-04-24 12:42:00,59.0,29.0,-100.00,ESE,105,5.0,10.0,32,0.00,,,0.00,834.000000,,2013-04-24 19:42:00,
2013-04-24 12:52:00,59.0,29.0,-100.00,ESE,105,5.0,10.0,32,0.00,,,0.00,834.000000,,2013-04-24 19:52:00,
2013-04-24 13:01:00,59.0,29.0,-100.00,ESE,105,5.0,10.0,32,0.00,,,0.00,834.000000,,2013-04-24 20:01:00,
2013-04-24 13:11:00,59.0,29.0,-100.00,ESE,105,5.0,10.0,32,0.00,,,0.00,834.000000,,2013-04-24 20:11:00,
2013-04-24 13:32:00,59.0,27.0,-100.00,East,96,7.0,12.0,29,0.00,,,0.00,866.000000,,2013-04-24 20:32:00,
2013-04-24 13:42:00,59.0,27.0,-100.00,East,96,7.0,12.0,29,0.00,,,0.00,866.000000,,2013-04-24 20:42:00,
2013-04-24 13:52:00,59.0,27.0,-100.00,East,96,7.0,12.0,29,0.00,,,0.00,866.000000,,2013-04-24 20:52:00,
2013-04-24 14:02:00,59.0,27.0,-100.00,East,96,7.0,12.0,29,0.00,,,0.00,866.000000,,2013-04-24 21:02:00,
2013-04-24 14:11:00,59.0,27.0,-100.00,East,96,7.0,12.0,29,0.00,,,0.00,866.000000,,2013-04-24 21:11:00,
2013-04-24 14:42:00,61.0,29.0,-100.00,East,91,6.0,11.0,29,0.00,,,0.00,863.000000,,2013-04-24 21:42:00,
2013-04-24 14:52:00,61.0,29.0,-100.00,East,91,6.0,11.0,29,0.00,,,0.00,863.000000,,2013-04-24 21:52:00,
2013-04-24 15:03:00,61.0,29.0,-100.00,East,91,6.0,11.0,29,0.00,,,0.00,863.000000,,2013-04-24 22:03:00,
2013-04-24 15:12:00,61.0,29.0,-100.00,East,91,6.0,11.0,29,0.00,,,0.00,863.000000,,2013-04-24 22:12:00,
2013-04-24 15:33:00,63.0,28.0,-100.00,East,82,4.0,11.0,26,0.00,,,0.00,792.000000,,2013-04-24 22:33:00,
2013-04-24 15:42:00,63.0,28.0,-100.00,East,82,4.0,11.0,26,0.00,,,0.00,792.000000,,2013-04-24 22:42:00,
2013-04-24 15:52:00,63.0,28.0,-100.00,East,82,4.0,11.0,26,0.00,,,0.00,792.000000,,2013-04-24 22:52:00,
2013-04-24 16:02:00,63.0,28.0,-100.00,East,82,4.0,11.0,26,0.00,,,0.00,792.000000,,2013-04-24 23:02:00,
2013-04-24 16:12:00,63.0,28.0,-100.00,East,82,4.0,11.0,26,0.00,,,0.00,792.000000,,2013-04-24 23:12:00,
2013-04-24 16:42:00,67.0,27.0,-100.00,SE,130,4.0,9.0,22,0.00,,,0.00,576.000000,,2013-04-24 23:42:00,
2013-04-24 16:52:00,67.0,27.0,-100.00,SE,130,4.0,9.0,22,0.00,,,0.00,576.000000,,2013-04-24 23:52:00,
2013-04-24 17:01:00,67.0,27.0,-100.00,SE,130,4.0,9.0,22,0.00,,,0.00,576.000000,,2013-04-25 00:01:00,
2013-04-24 17:12:00,67.0,27.0,-100.00,SE,130,4.0,9.0,22,0.00,,,0.00,576.000000,,2013-04-25 00:12:00,
2013-04-24 17:32:00,67.0,30.0,-100.00,SE,145,3.0,7.0,25,0.00,,,-99.99,304.000000,,2013-04-25 00:32:00,
2013-04-24 17:42:00,67.0,30.0,-100.00,SE,145,3.0,7.0,25,0.00,,,-99.99,304.000000,,2013-04-25 00:42:00,
2013-04-24 17:52:00,67.0,30.0,-100.00,SE,145,3.0,7.0,25,0.00,,,-99.99,304.000000,,2013-04-25 00:52:00,
2013-04-24 18:01:00,67.0,30.0,-100.00,SE,145,3.0,7.0,25,0.00,,,-99.99,304.000000,,2013-04-25 01:01:00,
2013-04-24 18:11:00,67.0,30.0,-100.00,SE,145,3.0,7.0,25,0.00,,,-99.99,304.000000,,2013-04-25 01:11:00,
2013-04-24 18:32:00,66.0,29.0,-100.00,East,87,2.0,6.0,25,0.00,,,0.00,328.000000,,2013-04-25 01:32:00,
2013-04-24 18:42:00,66.0,29.0,-100.00,East,87,2.0,6.0,25,0.00,,,0.00,328.000000,,2013-04-25 01:42:00,
2013-04-24 18:52:00,66.0,29.0,-100.00,East,87,2.0,6.0,25,0.00,,,0.00,328.000000,,2013-04-25 01:52:00,
2013-04-24 19:01:00,66.0,29.0,-100.00,East,87,2.0,6.0,25,0.00,,,0.00,328.000000,,2013-04-25 02:01:00,
2013-04-24 19:11:00,66.0,29.0,-100.00,East,87,2.0,6.0,25,0.00,,,0.00,328.000000,,2013-04-25 02:11:00,
2013-04-24 19:32:00,62.0,29.0,-100.00,SSW,193,4.0,5.0,28,0.00,,,0.00,138.000000,,2013-04-25 02:32:00,
2013-04-24 19:42:00,62.0,29.0,-100.00,SSW,193,4.0,5.0,28,0.00,,,0.00,138.000000,,2013-04-25 02:42:00,
2013-04-24 19:51:00,62.0,29.0,-100.00,SSW,193,4.0,5.0,28,0.00,,,0.00,138.000000,,2013-04-25 02:51:00,
2013-04-24 20:02:00,62.0,29.0,-100.00,SSW,193,4.0,5.0,28,0.00,,,0.00,138.000000,,2013-04-25 03:02:00,
2013-04-24 20:11:00,62.0,29.0,-100.00,SSW,193,4.0,5.0,28,0.00,,,0.00,138.000000,,2013-04-25 03:11:00,
2013-04-24 20:33:00,57.0,27.0,-100.00,SW,222,4.0,7.0,32,0.00,,,0.00,19.000000,,2013-04-25 03:33:00,
2013-04-24 20:43:00,57.0,27.0,-100.00,SW,222,4.0,7.0,32,0.00,,,0.00,19.000000,,2013-04-25 03:43:00,
2013-04-24 20:52:00,57.0,27.0,-100.00,SW,222,4.0,7.0,32,0.00,,,0.00,19.000000,,2013-04-25 03:52:00,
2013-04-24 21:03:00,57.0,27.0,-100.00,SW,222,4.0,7.0,32,0.00,,,0.00,19.000000,,2013-04-25 04:03:00,
2013-04-24 21:12:00,57.0,27.0,-100.00,SW,222,4.0,7.0,32,0.00,,,0.00,19.000000,,2013-04-25 04:12:00,
2013-04-24 21:33:00,55.0,28.0,-100.00,NNW,338,5.0,8.0,35,0.00,,,0.00,1.000000,,2013-04-25 04:33:00,
2013-04-24 21:43:00,55.0,28.0,-100.00,NNW,338,5.0,8.0,35,0.00,,,0.00,1.000000,,2013-04-25 04:43:00,
2013-04-24 21:52:00,55.0,28.0,-100.00,NNW,338,5.0,8.0,35,0.00,,,0.00,1.000000,,2013-04-25 04:52:00,
2013-04-24 22:02:00,55.0,28.0,-100.00,NNW,338,5.0,8.0,35,0.00,,,0.00,1.000000,,2013-04-25 05:02:00,
2013-04-24 22:12:00,55.0,28.0,-100.00,NNW,338,5.0,8.0,35,0.00,,,0.00,1.000000,,2013-04-25 05:12:00,
2013-04-24 22:32:00,52.0,30.0,-100.00,NW,320,4.0,10.0,43,0.00,,,0.00,0.000000,,2013-04-25 05:32:00,
2013-04-24 22:42:00,52.0,30.0,-100.00,NW,320,4.0,10.0,43,0.00,,,0.00,0.000000,,2013-04-25 05:42:00,
2013-04-24 22:52:00,52.0,30.0,-100.00,NW,320,4.0,10.0,43,0.00,,,0.00,0.000000,,2013-04-25 05:52:00,
2013-04-24 23:01:00,52.0,30.0,-100.00,NW,320,4.0,10.0,43,0.00,,,0.00,0.000000,,2013-04-25 06:01:00,
2013-04-24 23:11:00,52.0,30.0,-100.00,NW,320,4.0,10.0,43,0.00,,,0.00,0.000000,,2013-04-25 06:11:00,